Weather Roundup
Issued by NWS Corpus Christi, TX

Home | Current Version | Previous Version | Text Only | Print | Product List | Glossary On
Versions: 1 2 3 4 5 6 7 8 9 10 11 12 13 14 15 16 17 18 19 20 21 22 23 24 25 26 27 28 29 30 31 32 33 34 35 36 37 38 39 40 41 42 43 44 45 46 47 48 49 50
000
ASUS44 KCRP 242010
HRRCRP

SOUTH TEXAS REGIONAL WEATHER ROUNDUP
NATIONAL WEATHER SERVICE CORPUS CHRISTI TX
300 PM CDT FRI OCT 24 2014


TXZ229>244-242100-
...CORPUS CHRISTI AREA OBSERVATIONS...

CITY           SKY/WX    TMP DP  RH WIND       PRES   REMARKS
CORPUS CHRISTI SUNNY     84  59  42 E8        30.09F
NAS CORPUS CHR MOSUNNY   80  63  55 E6        30.09F
ROCKPORT       SUNNY     82  60  47 E10       30.08F
KINGSVILLE NAS MOSUNNY   87  61  41 NE10      30.08F
ALICE          SUNNY     86  59  39 VRB6      30.08F
FALFURRIAS     SUNNY     84  62  46 E5        30.08F
$$

...VICTORIA AREA OBSERVATIONS...

CITY           SKY/WX    TMP DP  RH WIND       PRES   REMARKS
VICTORIA       SUNNY     87  56  34 N10       30.09F
BEEVILLE       FAIR      87  55  34 E5        30.08F
PLEASANTON     SUNNY     83  57  41 CALM      30.10F
SAN ANTONIO    MOSUNNY   85  58  39 W5        30.11F
$$

...LAREDO AREA OBSERVATIONS...

CITY           SKY/WX    TMP DP  RH WIND       PRES   REMARKS
LAREDO         SUNNY     87  61  41 CALM      30.11F
COTULLA        MOSUNNY   88  59  37 SW8       30.09F
DEL RIO        SUNNY     83  62  49 SE8       30.10F
MCALLEN        SUNNY     86  62  44 VRB6      30.08F
HEBBRONVILLE   SUNNY     86  56  36 SE5       30.10F
$$

...OTHER TEXAS OBSERVATIONS...

CITY           SKY/WX    TMP DP  RH WIND       PRES   REMARKS
BROWNSVILLE    SUNNY     84  65  52 NE9       30.08F
HOUSTON        SUNNY     80  54  40 NE6       30.10F
COL. STATION   SUNNY     80  55  42 CALM      30.11F
AUSTIN         MOSUNNY   83  61  47 CALM      30.10F
WACO           SUNNY     82  59  45 SE8       30.10F
FORT WORTH     MOSUNNY   82  60  47 SW5       30.08F
WICHITA FALLS  MOSUNNY   85  62  46 SW13      30.05F
LUBBOCK        MOSUNNY   84  53  34 SW15      30.12F
EL PASO        SUNNY     81  45  28 CALM      30.19F
$$

...MARINE OBSERVATIONS...

STATION/POSITION TIME  SKY/WX   TEMP    WIND        PRES    VSBY  WAVE   SWELL
                                AIR SEA DIR/SP/G                  HT/PER HT/PER
                 (UTC)          (F)     (DEG/KT/KT) (MB)    (MI)  (FT/S) (FT/S)
PORT ARANSAS     2000            76 79   60/  7/  8 1020.2F
BUOY 90 E PORT A 2000            74 81   20/ 10/ 14 1019.3F         3/ 8   3/ 8
BUOY 45 SE BAFFI 2000            76 80   30/ 10/ 12 1018.4F         4/ 8   3/ 8
BUOY 200 E PT IS 2000            76 81   20/ 12/ 14 1017.2F         4/ 7   3/ 7
BUOY 15 E GALVES 2000            69 77   50/  6/  8 1018.9F         2/ 7   2/ 7
$$



USA.gov is the U.S. government's official web portal to all federal, state and local government web resources and services.